This is the latest recevied weather packets stored in our database for station/object ac2ev. If no packets are shown the sender has not sent any weather packets the latest 1 day(s).
| Time | Temp. | Humidity | Pressure | Rain* | Wind** | Luminosity | Snow |
|---|---|---|---|---|---|---|---|
| 1778043124 | 8.33° C | 92% | 1008.9 hPa | 2.03 mm | - | - | - |
| 1778042825 | 8.33° C | 92% | 1008.9 hPa | 1.52 mm | - | - | - |
| 1778041923 | 8.33° C | 92% | 1008.4 hPa | 1.27 mm | - | - | - |
| 1778041023 | 8.89° C | 92% | 1008.4 hPa | 1.27 mm | - | - | - |
| 1778040722 | 8.89° C | 92% | 1008.5 hPa | 1.02 mm | - | - | - |
| 1778040423 | 8.89° C | 92% | 1008.7 hPa | 1.02 mm | - | - | - |
| 1778039822 | 8.89° C | 92% | 1008.6 hPa | 1.02 mm | - | - | - |
| 1778038924 | 8.89° C | 92% | 1008.7 hPa | 0.76 mm | - | - | - |
| 1778038623 | 8.89° C | 92% | 1009 hPa | 0.51 mm | - | - | - |
| 1778038025 | 8.89° C | 92% | 1009 hPa | 0.25 mm | - | - | - |
| 1778037723 | 8.89° C | 92% | 1009 hPa | 0.25 mm | - | - | - |
| 1778037423 | 8.89° C | 92% | 1009.2 hPa | 0.25 mm | - | - | - |
| 1778036824 | 8.89° C | 92% | 1009.1 hPa | 0.25 mm | - | - | - |
| 1778036523 | 8.89° C | 92% | 1009.1 hPa | 0.25 mm | - | - | - |
| 1778036222 | 8.89° C | 92% | 1009.1 hPa | 0 mm | - | - | - |
| 1778035322 | 8.89° C | 92% | 1009.2 hPa | 0.25 mm | - | - | - |
| 1778035023 | 8.89° C | 92% | 1009.1 hPa | 0.25 mm | - | - | - |
| 1778034122 | 8.89° C | 92% | 1009.1 hPa | 0.25 mm | - | - | - |
| 1778033822 | 8.33° C | 92% | 1009.2 hPa | 0.51 mm | - | - | - |
| 1778033223 | 8.89° C | 91% | 1009.2 hPa | 0.51 mm | - | - | - |
| 1778032923 | 8.89° C | 91% | 1009.2 hPa | 0.51 mm | - | - | - |
| 1778032623 | 8.33° C | 91% | 1009.2 hPa | 0.51 mm | - | - | - |
| 1778032023 | 8.33° C | 91% | 1009.1 hPa | 0.76 mm | - | - | - |
| 1778031723 | 8.33° C | 91% | 1009.3 hPa | 0.51 mm | - | - | - |
| 1778031422 | 8.33° C | 91% | 1009.2 hPa | 0.76 mm | - | - | - |
* Rain latest hour (hover to see other rain measurements)
** Current wind speed in m/s (hover to see current wind gust speed)